Weather observations for the past three days for
Sarasota / Bradenton, Sarasota-Bradenton International Airport
Metric (Imperial)
Date Time (edt) Wind (kph) Vis. (km) Weather Sky Cond. Temperature (ºC) Relative Humidity Wind Chill (°C) Heat Index (°C) Pressure Precipitation (cm)
Air Dwpt 6 hour altimeter (cm) sea level (mb) 1 hr 3 hr 6 hr
Max. Min.
21 13:53 SW 17 16.09 Mostly Cloudy FEW030 SCT037 BKN047 30 23.9 30.6 25 70% 35 76.35 1018.0
21 12:53 Calm 16.09 Mostly Cloudy BKN031 BKN041 BKN050 30 22.8 65% 34 76.4 1018.6
21 11:53 NE 11 16.09 Mostly Cloudy BKN016 30 22.8 65% 34 76.4 1018.5
21 10:53 NE 11 16.09 A Few Clouds FEW022 28.9 22.8 70% 32 76.4 1018.4
21 09:53 NE 9 16.09 Mostly Cloudy BKN016 27.8 22.8 74% 31 76.4 1018.4
21 08:53 NE 11 16.09 Fair CLR 26.7 22.8 79% 29 76.38 1018.3
21 07:53 NE 13 16.09 Fair CLR 25 21.7 25 23.9 82% 26 76.38 1018.1
21 06:53 N 9 16.09 Fair CLR 23.9 21.1 84% 24 76.33 1017.6
21 05:53 NE 7 16.09 Fair CLR 23.9 20.6 82% 24 76.38 1018.1
21 04:53 NE 7 16.09 Fair CLR 23.9 20.6 82% 24 76.35 1017.9
21 03:53 NE 7 16.09 Fair CLR 23.9 20.6 82% 24 76.38 1018.0
21 02:53 NE 7 16.09 Fair CLR 24.4 20.6 79% 25 76.43 1018.7
21 01:53 NE 7 16.09 Fair CLR 25 20.6 30.6 25 77% 26 76.43 1018.8
21 00:53 NE 7 16.09 Fair CLR 25.6 20 71% 27 76.45 1019.3
20 23:53 NE 15 16.09 Fair CLR 26.7 20 67% 28 76.45 1019.2
20 22:53 NE 11 16.09 Fair CLR 27.8 20.6 65% 30 76.43 1019.0
20 21:53 E 15 16.09 Fair CLR 28.3 20.6 63% 30 76.4 1018.7
20 20:53 E 9 16.09 Fair CLR 29.4 20 57% 31 76.35 1017.7
20 19:53 E 20 G 35 16.09 Fair CLR 30.6 19.4 34.4 30.6 51% 32 76.3 1017.2
20 18:53 E 22 G 33 16.09 Fair CLR 32.2 20 48% 34 76.28 1016.8
20 17:53 E 17 G 35 16.09 A Few Clouds FEW060 32.8 19.4 45% 35 76.25 1016.3
20 16:53 E 26 G 39 16.09 Fair CLR 33.3 19.4 44% 35 76.28 1016.7
20 15:53 E 22 G 39 16.09 Partly Cloudy SCT060 34.4 21.1 46% 38 76.28 1017.0
20 14:53 E 17 G 35 16.09 Partly Cloudy FEW048 FEW060 SCT090 32.8 20.6 49% 36 76.35 1017.7
20 13:53 E 19 G 35 16.09 Partly Cloudy FEW045 SCT055 32.8 21.1 32.8 25.6 50% 36 76.38 1018.2
20 12:53 E 24 G 39 16.09 A Few Clouds FEW042 FEW050 31.7 21.7 55% 35 76.43 1018.8
20 11:53 E 19 G 37 16.09 A Few Clouds FEW030 FEW041 31.1 22.2 59% 35 76.43 1018.8
20 10:53 E 20 G 39 16.09 Overcast BKN025 OVC032 29.4 23.3 70% 34 76.43 1018.9
20 09:53 E 20 G 33 16.09 Mostly Cloudy BKN020 BKN033 28.3 23.3 74% 32 76.4 1018.6
20 08:53 E 19 G 33 16.09 Partly Cloudy SCT016 27.2 23.9 82% 30 76.38 1018.1
20 07:53 E 13 16.09 A Few Clouds FEW018 25.6 23.3 25.6 23.9 87% 27 76.35 1017.9
20 06:53 E 11 16.09 Fair CLR 24.4 22.8 91% 24 76.3 1017.2
20 05:53 NE 13 16.09 A Few Clouds FEW008 23.9 22.8 94% 23 76.25 1016.5
20 04:53 NE 11 16.09 Fair CLR 23.9 22.2 90% 23 76.2 1015.9
20 03:53 NE 11 16.09 Fair CLR 23.9 22.2 90% 23 76.23 1016.0
20 02:53 NE 13 16.09 Fair CLR 23.9 22.2 90% 23 76.23 1016.3
20 01:53 NE 9 16.09 Fair CLR 24.4 22.2 26.7 24.4 88% 25 76.3 1017.3
20 00:53 NE 9 16.09 Fair CLR 24.4 22.2 88% 25 76.33 1017.6
19 23:53 NE 13 16.09 Fair CLR 25.6 22.2 82% 27 76.35 1017.9
19 22:53 NE 13 16.09 Fair CLR 25.6 22.2 82% 27 76.33 1017.6
19 21:53 NE 13 16.09 Fair CLR 26.1 22.2 79% 28 76.3 1017.3
19 20:53 E 17 G 31 16.09 Fair CLR 26.7 22.8 79% 29 76.25 1016.4
19 19:53 NE 15 G 33 16.09 Fair CLR 26.1 22.8 31.7 26.1 82% 28 76.23 1016.0
19 18:53 NE 19 G 39 16.09 Light Rain FEW027 SCT040 26.7 22.8 79% 29 76.17 1015.5
19 17:53 E 17 16.09 Mostly Cloudy SCT095 BKN110 29.4 22.8 68% 33 76.17 1015.4
19 16:53 E 15 16.09 Mostly Cloudy BKN100 28.3 22.8 72% 32 76.2 1015.7
19 15:53 E 24 G 44 16.09 Partly Cloudy SCT039 31.7 22.2 57% 36 76.17 1015.5
19 14:53 E 28 G 44 16.09 A Few Clouds FEW033 30.6 22.2 61% 34 76.2 1015.9
19 13:53 E 20 G 39 16.09 Mostly Cloudy FEW036 SCT046 BKN100 30.6 21.7 32.2 26.1 59% 34 76.25 1016.3
19 12:53 E 28 G 44 16.09 Partly Cloudy SCT039 31.7 22.8 59% 36 76.23 1016.2
19 11:53 E 20 G 33 16.09 Partly Cloudy SCT034 31.1 22.8 61% 35 76.23 1016.3
19 10:53 E 20 G 31 16.09 Mostly Cloudy BKN028 BKN036 30 22.8 65% 34 76.2 1015.8
19 09:53 E 20 G 33 16.09 A Few Clouds FEW022 29.4 23.3 70% 34 76.2 1015.7
19 08:53 E 19 G 31 16.09 A Few Clouds FEW014 27.2 23.9 82% 30 76.2 1015.8
19 07:53 E 17 G 31 16.09 Partly Cloudy SCT010 26 24 89% 28 76.17 0.0
19 06:53 E 19 G 31 16.09 A Few Clouds FEW009 26 24 89% 28 76.12 0.0
19 05:53 E 19 16.09 A Few Clouds FEW008 25 24 94% 26 76.1 0.0
19 04:53 E 15 16.09 Partly Cloudy SCT009 25 23 89% 26 76.07 0.0
18 22:53 E 17 16.09 A Few Clouds FEW014 26 23 84% 28 76.12 0.0
18 20:53 NE 17 G 30 16.09 Fair CLR 26.1 22.2 79% 28 76.05 1013.8
18 19:51 NE 26 G 43 16.09 Partly Cloudy SCT020 27 22 74% 29 76.05 0.0
18 17:55 E 24 G 52 16.09 Partly Cloudy SCT055 32 19 46% 33 75.92 0.0
18 16:51 E 26 G 46 16.09 Partly Cloudy SCT060 33 21 49% 36 75.92 0.0
18 15:53 E 22 G 37 16.09 A Few Clouds FEW055 33 19 44% 35 75.97 0.0
Date Time (edt) Wind (kph) Vis. (km) Weather Sky Cond. Air Dwpt Max. Min. Relative Humidity Wind Chill (°C) Heat Index (°C) altimeter (cm) sea level (mb) 1 hr 3 hr 6 hr
6 hour
Temperature (ºC) Pressure Precipitation (cm)